Tracking 26492 objects as of 8-Dec-2022
HD Live streaming from Space Station
objects crossing your sky now

STARLINK-4512

Track STARLINK-4512 now!
10-day predictions
STARLINK-4512 is classified as:


NORAD ID: 53398
Int'l Code: 2022-097L
Perigee: 545.4 km
Apogee: 548.4 km
Inclination: 53.2 °
Period: 95.4 minutes
Semi major axis: 6917 km
RCS: Unknown
Launch date: August 10, 2022
Source: United States (US)
Launch site: AIR FORCE EASTERN TEST RANGE (AFETR)
aabbcc
Your satellite tracking list
Your tracking list is empty




NASA's NSSDC Master Catalog

Two Line Element Set (TLE):
1 53398U 22097L   22342.25973124  .00003503  00000-0  23809-3 0  9990
2 53398  53.2181  54.6925 0002148  39.9973 320.1177 15.08838170 18760
Source of the keplerian elements: AFSPC